EJU748Z LFBD-LFML

Flight info

Callsign EJU748Z
Flight time N/A
Altitude 33000
Route OBLOC DCT SECHE DCT SOVET DCT FJR
Aircraft A320/M-SDE3FGHIRWY/LB1

Departure

Time 2026-05-04 17:57
Airport Bordeaux–Mérignac Airport (LFBD)

Arrival

Time N/A
Airport Marseille Provence Airport (LFML)
Time Latitude Longitude Altitude Speed Heading
2026-05-04 17:36 44.82847 -0.69914 171 ft 0 kts 17°
2026-05-04 17:48 44.82840 -0.69917 171 ft 2 kts 17°
2026-05-04 17:48 44.82826 -0.69925 171 ft 2 kts 38°
2026-05-04 17:48 44.82818 -0.69934 171 ft 2 kts 48°
2026-05-04 17:48 44.82808 -0.69959 170 ft 2 kts 73°
2026-05-04 17:49 44.82806 -0.69980 170 ft 2 kts 92°
2026-05-04 17:49 44.82807 -0.69993 169 ft 0 kts 104°
2026-05-04 17:49 44.82809 -0.70003 169 ft 0 kts 107°
2026-05-04 17:52 44.82809 -0.70001 169 ft 0 kts 107°
2026-05-04 17:52 44.82805 -0.69986 170 ft 2 kts 107°
2026-05-04 17:53 44.82798 -0.69953 170 ft 4 kts 108°
2026-05-04 17:53 44.82787 -0.69906 171 ft 5 kts 107°
2026-05-04 17:53 44.82776 -0.69846 172 ft 6 kts 102°
2026-05-04 17:53 44.82763 -0.69785 172 ft 6 kts 114°
2026-05-04 17:54 44.82720 -0.69770 173 ft 7 kts 217°
2026-05-04 17:54 44.82711 -0.69842 172 ft 8 kts 283°
2026-05-04 17:54 44.82720 -0.69895 171 ft 3 kts 275°
2026-05-04 17:54 44.82701 -0.69935 171 ft 6 kts 205°
2026-05-04 17:55 44.82651 -0.69959 170 ft 8 kts 196°
2026-05-04 17:55 44.82589 -0.69986 170 ft 9 kts 197°
2026-05-04 17:55 44.82552 -0.70033 169 ft 8 kts 268°
2026-05-04 17:55 44.82561 -0.70085 168 ft 4 kts 288°
2026-05-04 17:56 44.82581 -0.70175 166 ft 29 kts 287°
2026-05-04 17:56 44.82715 -0.70815 163 ft 104 kts 286°
2026-05-04 17:56 44.82981 -0.72084 165 ft 162 kts 287°
2026-05-04 17:56 44.83282 -0.73696 670 ft 172 kts 279°
2026-05-04 17:57 44.83105 -0.75321 1487 ft 177 kts 243°
2026-05-04 17:57 44.82163 -0.76388 2260 ft 187 kts 200°
2026-05-04 17:57 44.80819 -0.76293 2803 ft 207 kts 160°
2026-05-04 17:57 44.79494 -0.75409 3321 ft 223 kts 159°
2026-05-04 17:58 44.77909 -0.74745 3796 ft 245 kts 169°
2026-05-04 17:58 44.76199 -0.74283 4389 ft 263 kts 171°
2026-05-04 17:58 44.74317 -0.73828 5066 ft 278 kts 172°
2026-05-04 17:58 44.72426 -0.73333 6010 ft 281 kts 166°
2026-05-04 17:59 44.70702 -0.72089 6996 ft 285 kts 139°
2026-05-04 17:59 44.69548 -0.69859 7955 ft 289 kts 112°
2026-05-04 17:59 44.68405 -0.64409 9568 ft 300 kts 106°
2026-05-04 18:00 44.67844 -0.61590 10395 ft 304 kts 107°
2026-05-04 18:00 44.67256 -0.58679 10951 ft 319 kts 107°
2026-05-04 18:00 44.66627 -0.55610 11385 ft 337 kts 107°
2026-05-04 18:00 44.65950 -0.52331 11775 ft 356 kts 107°
2026-05-04 18:01 44.65250 -0.48954 12234 ft 370 kts 108°
2026-05-04 18:01 44.64526 -0.45460 12988 ft 374 kts 108°
2026-05-04 18:01 44.63797 -0.41950 13813 ft 376 kts 108°
2026-05-04 18:02 44.62326 -0.34891 15322 ft 380 kts 109°
2026-05-04 18:02 44.61588 -0.31360 15961 ft 384 kts 110°
2026-05-04 18:02 44.60857 -0.27881 16688 ft 385 kts 110°
2026-05-04 18:02 44.60089 -0.24227 17415 ft 388 kts 110°
2026-05-04 18:03 44.59330 -0.20619 18084 ft 390 kts 110°
2026-05-04 18:03 44.58544 -0.16900 18750 ft 393 kts 110°
2026-05-04 18:03 44.57758 -0.13186 19415 ft 395 kts 110°
2026-05-04 18:03 44.56978 -0.09503 20074 ft 397 kts 110°
2026-05-04 18:04 44.56194 -0.05798 20715 ft 399 kts 110°
2026-05-04 18:04 44.55390 -0.02018 21355 ft 401 kts 111°
2026-05-04 18:04 44.53791 0.05489 22520 ft 406 kts 111°
2026-05-04 18:05 44.52975 0.09310 23090 ft 408 kts 111°
2026-05-04 18:05 44.52164 0.13096 23646 ft 409 kts 111°
2026-05-04 18:05 44.51336 0.16959 24188 ft 412 kts 111°
2026-05-04 18:05 44.50515 0.20790 24681 ft 414 kts 111°
2026-05-04 18:06 44.48829 0.28617 25591 ft 420 kts 111°
2026-05-04 18:06 44.47977 0.32556 26020 ft 423 kts 111°
2026-05-04 18:06 44.47131 0.36472 26442 ft 426 kts 111°
2026-05-04 18:07 44.46266 0.40462 26851 ft 428 kts 111°
2026-05-04 18:07 44.45390 0.44489 27244 ft 430 kts 111°
2026-05-04 18:07 44.44517 0.48500 27641 ft 432 kts 111°
2026-05-04 18:07 44.43639 0.52512 27990 ft 435 kts 112°
2026-05-04 18:08 44.42712 0.56572 28330 ft 437 kts 112°
2026-05-04 18:08 44.41769 0.60636 28686 ft 438 kts 113°
2026-05-04 18:08 44.40810 0.64754 29122 ft 437 kts 112°
2026-05-04 18:08 44.39877 0.68770 29610 ft 435 kts 114°
2026-05-04 18:09 44.38008 0.76810 30501 ft 432 kts 114°
2026-05-04 18:09 44.36151 0.84756 31230 ft 432 kts 114°
2026-05-04 18:10 44.35212 0.88764 31532 ft 433 kts 114°
2026-05-04 18:10 44.34269 0.92782 31776 ft 435 kts 113°
2026-05-04 18:10 44.33324 0.96805 32036 ft 437 kts 114°
2026-05-04 18:10 44.32372 1.00855 32286 ft 439 kts 113°
2026-05-04 18:11 44.31417 1.04907 32522 ft 440 kts 113°
2026-05-04 18:11 44.30448 1.09008 32767 ft 442 kts 113°
2026-05-04 18:11 44.29485 1.13081 32893 ft 444 kts 113°
2026-05-04 18:11 44.28514 1.17185 32897 ft 444 kts 113°
2026-05-04 18:12 44.26549 1.25470 32903 ft 445 kts 113°
2026-05-04 18:12 44.24589 1.33679 32900 ft 447 kts 113°
2026-05-04 18:13 44.22604 1.41992 32903 ft 448 kts 114°
2026-05-04 18:14 44.19632 1.54365 32898 ft 450 kts 113°
2026-05-04 18:14 44.17645 1.62596 32897 ft 451 kts 113°
2026-05-04 18:15 44.13602 1.79255 32891 ft 452 kts 114°
2026-05-04 18:16 44.11569 1.87571 32892 ft 453 kts 114°
2026-05-04 18:16 44.09531 1.95866 32888 ft 454 kts 114°
2026-05-04 18:17 44.06460 2.08345 32878 ft 454 kts 114°
2026-05-04 18:18 44.03353 2.20900 32877 ft 454 kts 114°
2026-05-04 18:18 44.01282 2.29224 32880 ft 455 kts 114°
2026-05-04 18:19 43.98173 2.41682 32876 ft 454 kts 114°
2026-05-04 18:19 43.96090 2.49993 32888 ft 453 kts 114°
2026-05-04 18:20 43.94001 2.58288 32887 ft 452 kts 115°
2026-05-04 18:20 43.91916 2.66527 32881 ft 452 kts 115°
2026-05-04 18:21 43.89828 2.74768 32886 ft 451 kts 115°
2026-05-04 18:21 43.87734 2.83010 32879 ft 451 kts 116°
2026-05-04 18:22 43.85634 2.91244 32879 ft 451 kts 116°
2026-05-04 18:22 43.83542 2.99408 32876 ft 450 kts 116°
2026-05-04 18:23 43.81440 3.07572 32879 ft 451 kts 116°
2026-05-04 18:23 43.80374 3.11706 32646 ft 450 kts 116°
2026-05-04 18:23 43.79316 3.15793 32292 ft 449 kts 116°
2026-05-04 18:24 43.78273 3.19823 31756 ft 447 kts 115°
2026-05-04 18:24 43.77218 3.23892 31093 ft 447 kts 115°
2026-05-04 18:24 43.76169 3.27924 30402 ft 447 kts 115°
2026-05-04 18:24 43.75114 3.31982 29655 ft 447 kts 115°
2026-05-04 18:25 43.74068 3.36002 28917 ft 447 kts 115°
2026-05-04 18:25 43.72998 3.40102 28101 ft 448 kts 114°
2026-05-04 18:25 43.71944 3.44127 27306 ft 449 kts 114°
2026-05-04 18:25 43.70876 3.48198 26514 ft 448 kts 114°
2026-05-04 18:26 43.69818 3.52227 25931 ft 442 kts 114°
2026-05-04 18:26 43.68772 3.56215 25410 ft 436 kts 114°
2026-05-04 18:26 43.67734 3.60160 24863 ft 432 kts 114°
2026-05-04 18:26 43.66717 3.64023 24298 ft 428 kts 114°
2026-05-04 18:27 43.65711 3.67832 23743 ft 425 kts 115°
2026-05-04 18:27 43.64698 3.71658 23186 ft 422 kts 114°
2026-05-04 18:27 43.63694 3.75440 22644 ft 420 kts 115°
2026-05-04 18:27 43.62691 3.79213 22086 ft 417 kts 114°
2026-05-04 18:28 43.61694 3.82978 21505 ft 415 kts 114°
2026-05-04 18:28 43.60706 3.86700 20943 ft 413 kts 114°
2026-05-04 18:28 43.59716 3.90418 20357 ft 411 kts 114°
2026-05-04 18:28 43.58727 3.94122 19796 ft 409 kts 114°
2026-05-04 18:29 43.57649 3.97713 19243 ft 404 kts 118°
2026-05-04 18:29 43.56418 4.01166 18692 ft 400 kts 121°
2026-05-04 18:29 43.55104 4.04584 18127 ft 398 kts 121°
2026-05-04 18:29 43.53813 4.07925 17594 ft 396 kts 122°
2026-05-04 18:30 43.51203 4.14664 16451 ft 392 kts 122°
2026-05-04 18:30 43.49926 4.17965 15903 ft 389 kts 122°
2026-05-04 18:30 43.48645 4.21274 15358 ft 387 kts 122°
2026-05-04 18:31 43.47407 4.24464 14809 ft 385 kts 122°
2026-05-04 18:31 43.46143 4.27721 14263 ft 381 kts 121°
2026-05-04 18:31 43.44894 4.30938 13706 ft 378 kts 122°
2026-05-04 18:31 43.43650 4.34131 13179 ft 376 kts 122°
2026-05-04 18:32 43.42420 4.37295 12632 ft 373 kts 122°
2026-05-04 18:32 43.41198 4.40424 12097 ft 370 kts 122°
2026-05-04 18:32 43.39985 4.43532 11563 ft 367 kts 122°
2026-05-04 18:32 43.38791 4.46586 11026 ft 363 kts 122°
2026-05-04 18:33 43.37593 4.49628 10726 ft 352 kts 121°
2026-05-04 18:33 43.36447 4.52522 10741 ft 336 kts 122°
2026-05-04 18:33 43.35371 4.55243 10756 ft 318 kts 122°
2026-05-04 18:33 43.34331 4.57859 10765 ft 300 kts 122°
2026-05-04 18:34 43.33354 4.60315 10784 ft 289 kts 122°
2026-05-04 18:34 43.32396 4.62713 10811 ft 290 kts 122°
2026-05-04 18:34 43.31414 4.65163 10849 ft 290 kts 123°
2026-05-04 18:34 43.30453 4.67575 10891 ft 281 kts 123°
2026-05-04 18:35 43.29505 4.69942 10528 ft 287 kts 124°
2026-05-04 18:35 43.28326 4.72132 10128 ft 281 kts 138°
2026-05-04 18:35 43.26855 4.73844 9904 ft 273 kts 150°
2026-05-04 18:35 43.25205 4.75101 9920 ft 274 kts 156°
2026-05-04 18:36 43.23486 4.76259 9926 ft 274 kts 157°
2026-05-04 18:36 43.21759 4.77406 9931 ft 274 kts 157°
2026-05-04 18:36 43.20033 4.78555 9932 ft 274 kts 157°
2026-05-04 18:36 43.18310 4.79705 9943 ft 274 kts 157°
2026-05-04 18:37 43.16591 4.80854 9972 ft 274 kts 157°
2026-05-04 18:37 43.14875 4.81998 10003 ft 274 kts 156°